カタログに戻る

CZ-6A DEB

運用中SSO
NORAD 54281·DEBRIS·🇨🇳 China

打ち上げ Nov 11, 2022 から Taiyuan Satellite Launch Center

Loading…

次のパス (今後24時間)

TLE

最新Source: Space-Track

元期: Sep 14, 2026, 12:14 UTC

1 54281U 22151Y   26257.51027934  .00000183  00000-0  74392-4 0  9995
2 54281  98.5852 280.9228 0103169 111.8888 249.3305 14.35614926200543

AllMySatでCZ-6A DEBをリアルタイム追跡

Download on the App Store